Weather History for Fairfield, CA

Change the Weather History Date:

Tuesday, November 5, 2013

  Actual Average Record
Temperature  
Mean Temperature 59 °F -  
Max Temperature 72 °F 66 °F 82 °F (1999)
Min Temperature 43 °F 45 °F 36 °F (2011)
Degree Days  
Heating Degree Days 6    
Growing Degree Days 9 (Base 50)    
Moisture  
Dew Point 31 °F    
Average Humidity 36    
Maximum Humidity 66    
Minimum Humidity 23    
Precipitation  
Precipitation 0.00 in - - ()
Sea Level Pressure  
Sea Level Pressure 30.16 in    
Wind  
Wind Speed 8 mph (NE)    
Max Wind Speed 21 mph    
Max Gust Speed 26 mph    
Visibility 10 miles    
Events      
Averages and records for this station are not official NWS values.
T = Trace of Precipitation, MM = Missing Value Source: NWS Daily Summary

Daily Weather History Graph

Daily Weather History Graph

Search for Another Location

Airport:

Trip Planner

Search our weather history database for the weather conditions in past years. The results will help you decide how hot, cold, wet, or windy it might be!

Date:

Astronomy

Nov. 05, 2013 Rise Set
Actual Time 6:38 AM PST 5:03 PM PST
Civil Twilight 6:10 AM PST 5:31 PM PST
Nautical Twilight 5:39 AM PST 6:02 PM PST
Astronomical Twilight 5:08 AM PST 6:33 PM PST
Moon 8:57 AM PST (11/5) 7:11 PM PST (11/5)
Length of Visible Light 11h 20m
Length of Day
10h 25m
Waxing Crescent, 7% of the Moon is Illuminated
Nov 5
Waxing Crescent
Nov 9
First Quarter
Nov 17
Full
Nov 25
Last Quarter
Dec 2
New

Hourly Weather History & Observations

Time (PST) Temp. Dew Point Humidity Pressure Visibility Wind Dir Wind Speed Gust Speed Precip Events Conditions
12:58 AM 61.2 °F 26.4 °F 27% 30.06 in 10.0 mi NNW 20.7 mph 26.5 mph N/A   Clear
1:58 AM 59.9 °F 26.1 °F 27% 30.05 in 10.0 mi North 11.5 mph - N/A   Clear
2:58 AM 57.7 °F 27.0 °F 31% 30.08 in 10.0 mi SE 6.9 mph - N/A   Clear
3:58 AM 54.5 °F 27.1 °F 35% 30.11 in 10.0 mi ESE 4.6 mph - N/A   Clear
4:58 AM 54.7 °F 27.9 °F 36% 30.12 in 10.0 mi South 2.3 mph - N/A   Clear
5:58 AM 50.4 °F 28.4 °F 43% 30.14 in 10.0 mi WNW 1.2 mph - N/A   Clear
6:58 AM 46.8 °F 26.8 °F 46% 30.16 in 10.0 mi WSW 3.5 mph - N/A   Clear
7:58 AM 53.2 °F 29.7 °F 40% 30.19 in 10.0 mi East 3.5 mph - N/A   Clear
8:58 AM 58.6 °F 31.5 °F 36% 30.20 in 10.0 mi NW 3.5 mph - N/A   Clear
9:58 AM 63.1 °F 32.4 °F 32% 30.20 in 10.0 mi NW 2.3 mph - N/A   Clear
10:58 AM 68.2 °F 33.4 °F 28% 30.20 in 10.0 mi NNE 12.7 mph - N/A   Clear
11:58 AM 70.2 °F 32.0 °F 24% 30.17 in 10.0 mi NNE 13.8 mph 18.4 mph N/A   Clear
12:58 PM 71.6 °F 32.4 °F 24% 30.15 in 10.0 mi NNE 12.7 mph - N/A   Clear
1:58 PM 72.9 °F 32.4 °F 23% 30.13 in 10.0 mi ENE 3.5 mph - N/A   Clear
2:58 PM 71.1 °F 34.0 °F 26% 30.13 in 10.0 mi SW 6.9 mph - N/A   Clear
3:58 PM 70.2 °F 32.4 °F 25% 30.14 in 10.0 mi SE 6.9 mph - N/A   Clear
4:58 PM 65.3 °F 34.0 °F 31% 30.15 in 10.0 mi SSE 2.3 mph - N/A   Clear
5:58 PM 59.7 °F 32.2 °F 35% 30.16 in 10.0 mi SE 5.8 mph - N/A   Clear
6:58 PM 56.3 °F 29.3 °F 36% 30.18 in 10.0 mi SE 4.6 mph - N/A   Clear
7:58 PM 51.6 °F 30.0 °F 44% 30.19 in 10.0 mi NNW 2.3 mph - N/A   Clear
8:58 PM 48.0 °F 29.3 °F 48% 30.21 in 10.0 mi NNW 2.3 mph - N/A   Clear
9:58 PM 50.4 °F 32.5 °F 50% 30.23 in 10.0 mi Calm Calm - N/A   Clear
10:58 PM 48.6 °F 34.5 °F 58% 30.23 in 10.0 mi Calm Calm - N/A   Clear
11:58 PM 43.9 °F 33.3 °F 66% 30.23 in 10.0 mi ENE 2.3 mph - N/A   Clear